Find Starlink 3702

NORAD ID: 52100 Int'l Des: 2022-029 Owner: SPXS Country: US Constellation: starlink operational
LEOCIRCULAR

現在のビュー

3D地球を読み込み中...

About Starlink 3702

Starlink 3702 (NORAD 52100) is a starlink constellation satellite (v1.5) launched Mar 19, 2022 by SPXS of US. It operates in LEO, CIRCULAR orbit with a mass of 297.00 kg.

次回通過

Passes for default location (London). Set your location on the main map for personalized predictions.

高度履歴

Loading altitude history...

軌道要素

1 52100U 22029N 26236.83184352 .00004701 00000-0 15011-3 0 9999
2 52100 53.1598 42.4320 0001261 73.1624 286.9517 15.34412333246200
Epoch: Aug 24, 2026 • Age: 20 hours

現在のステータス

高度 469.2 km
遠地点 / 近地点 N/A
速度 7.63 km/s
衛星直下点 -21.25°S, 27.23°E
打ち上げ日 Mar 19, 2022
運用期間 4.4 years
タイプ internet

技術仕様

分類 Payload
質量 297.00 kg
乾燥質量 275.00 kg
総質量 297.00 kg
長さ 0.20 m
直径 2.80 m
スパン 9.00 m
形状 Box + pan
製造者 SPXS
バスタイプ Starlink
フェーズステータス In Orbit
所有者/国 SPXS/US

Most Searched